loading
|
Showing default

SPACEMOBILE-001, 61047

Orbit data source: Space-Track

SPACEMOBILE-001, 61047 is a payload satellite owned by AST & Science (US) in LEO that was launched on Thu, 12 Sep 2024 UTC via an FALCON 9 launch vehicle from the Air Force Eastern Test Range (AFETR). Payloads include a variety of satellites, spacecraft, and rockets equipped with specific instruments for various scientific and technological missions. These include communications satellites like Starlink; space stations such as the ISS; scientific satellites like the Hubble; Earth observation satellites from companies like Planet Labs, Umbra, and HawkEye 360; GPS; miniature CubeSats for education and research; and military/defense satellites.

Loading next visibility...
Next conjunction unknown
Loading greatness...
SPACEMOBILE-001 details
Identifier
61047, 2024-163C
Orbit
LEO
Last TLE update19 hours ago
Origin
Flag of USAST & Science (US)
ManufacturerAST & Science
MissionOperational spacecraft
Bus & MotorBW3, Unknown motor
Mass1,500 kg wet, 1,500 kg dry
Launch date (UTC)
2024-09-12 (1 month ago)
Launch vehicle
FALCON 9
Launch site
Air Force Eastern Test Range (AFETR)
Object type
Payload
Rocket body
Debris
Shape & HBRUnknown
Radar Cross SectionLarge (>1 m²)

Expand to show TLE details & history

TLE from 19 hours ago
0 SPACEMOBILE-001
1 61047U 24163C   24287.84829593  .00003619  00000-0  19302-3 0  9992
2 61047  52.9722 237.8381 0014088  61.8422 298.3993 15.17608970  4778
Epoch: 2024-10-13T20:21Z
Definitive object data (Epoch: 2024-10-13T20:21:32.768Z)
Latitude0.00004°
Longitude-90.4323°
Altitude509.337 km
Speed7.613 km/s
True Right ascension15h 51m 21s
True Declination0° 00' 00"
Sunlit
Object was in daylight at TLE epoch
Predictive object data (real-time)
Latitude27.07149°
Longitude-71.53403°
Altitude505.846 km
Speed7.62 km/s
Apparent Right ascension19h 15m 36s
Apparent Declination-6° 09' 56"
Sunlit
Object is in daylight
Predictive observer data (real-time)
Local Sidereal Time10:02:49
Azimuth59.321° ENE
Elevation-39.594°
Doppler factor1
Orbital elements
Apogee523.063 km
Perigee503.646 km
Semi-major axis6,891.492 km
Eccentricity0.0014088
Inclination52.9722°
RAAN237.8381°
Arg. of periapsis61.8422°
True anomaly298.25717°
Mean anomaly298.3993°
Eccentric anomaly298.32825°
Mean motion3.79379 °/min
BSTAR0.00019302
Period94.89 mins
No data available
No data available

SPACEMOBILE-001 Visibility forecast

Observer location: 39.9160978°, -105.1181434

Span
Click to sort rows by Start time (UTC) header in descending order
Start Az.
Max El. time (UTC)
Max El. Az.
Max El.
End time (UTC)
End Az.
6 mins2024-10-14 23:24:37.132Z226.428° WSW2024-10-14 23:27:37.132Z118.303° SE44.822°2024-10-14 23:30:37.132Z51.917° ENE
4 mins2024-10-15 01:05:37.132Z313.703° NW2024-10-15 01:06:37.132Z334.954° NNW19.162°2024-10-15 01:09:37.132Z26.935° NE
6 mins2024-10-15 06:03:37.132Z313.976° NW2024-10-15 06:05:37.132Z339.638° N43.056°2024-10-15 06:09:37.132Z126.153° SE